{"data":{"norad_id":60077,"epoch":"2026-09-21T21:20:46.329504Z","epoch_age_seconds":58150,"freshness":"FRESH","line1":"1 60077U 24113U   26264.88942511 -.00001694  00000+0 -39030-4 0  9999","line2":"2 60077  53.1604 163.2028 0001158  53.7183 306.3927 15.34381903127338","mean_motion":15.34381903,"eccentricity":0.0001158,"inclination_deg":53.1604,"raan_deg":163.2028,"arg_perigee_deg":53.7183,"mean_anomaly_deg":306.3927,"bstar":-3.903e-5,"rev_number":12733,"period_min":93.848864952365,"perigee_km":461.964853305,"apogee_km":463.54920436208,"semimajor_km":6840.8940288335,"source":"CELESTRAK","updated_at":"2026-09-22T09:00:49.149021Z"}}